Location: Le Coudert
(45.2776°N, 1.9450°E)
Time: 00:12:34
(UTC+00:00)

Daily predictions for brighter satellites

Satellite Brightness Start Highest point End
(mag) Time Altitude Azimuth Time Altitude Azimuth Time Altitude Azimuth
CENTAUR R/B 3.6 03:44:24 39° NE 03:44:24 39° NE 03:48:47 10° NE
NOSS 3-2 (C) 3.9 04:12:49 50° NNE 04:12:49 50° NNE 04:17:38 10° NE
BREEZE-M DEB (TANK) 3.5 04:21:03 64° SSE 04:21:03 64° SSE 04:30:56 10° ESE
Envisat 4.3 04:19:57 10° NNE 04:24:41 38° E 04:29:23 10° SSE
Cosmos 2098 Rocket 3.7 04:32:19 48° SE 04:33:09 56° E 04:38:14 10° NNE
Cosmos 2369 Rocket 2.0 04:34:16 89° NNW 04:34:16 89° NNW 04:39:53 10° NNE
Cosmos 2344 3.8 04:34:44 46° NW 04:34:44 46° NW 04:42:24 10° NE
SL-19 R/B 4.3 04:33:26 10° SSE 04:38:59 77° ENE 04:41:27 35° N
USA 238 DEB 3.8 04:39:33 51° NNW 04:39:33 51° NNW 04:45:58 10° NNE
USA 238 3.8 04:39:38 51° NW 04:39:38 51° NW 04:46:05 10° NNE
Cosmos 1656 Rocket 3.7 04:37:56 38° S 04:40:01 75° ESE 04:45:28 10° NNE
COSMO-SKYMED 1 3.4 04:37:19 10° SSE 04:41:31 50° ENE 04:42:51 36° NNE
Cosmos 2279 Rocket 4.3 04:36:19 10° N 04:42:29 66° E 04:48:38 10° SSE
USA 215 3.7 04:38:00 10° ESE 04:44:20 55° NNE 04:46:50 36° NNW
Meteor 1-31 Rocket 4.2 04:41:42 10° NNE 04:45:22 38° E 04:49:02 10° SSE
DELTA 2 R/B (1) 4.3 04:46:42 38° SSW 04:47:51 43° S 04:53:04 10° E
Cosmos 1943 Rocket 3.5 04:54:23 25° NNW 04:54:23 25° NNW 04:57:13 10° N
CZ-2C R/B 2.8 04:47:37 10° SSE 04:53:04 72° ENE 04:57:37 15° N
Cosmos 1354 Rocket 4.4 04:53:21 10° S 04:58:32 63° ESE 05:03:47 10° NNE
Cosmos 1634 Rocket 3.9 04:58:14 27° NNW 05:01:37 59° W 05:07:41 10° S
SKYMED 3 4.5 05:01:15 10° SSE 05:05:35 89° E 05:07:15 38° NNW
Landsat 5 3.8 05:04:52 10° SSE 05:09:22 75° ENE 05:12:32 19° N
Cosmos 1515 Rocket 4.2 05:06:35 10° N 05:10:53 54° ENE 05:15:07 10° SSE
SJ 16-02 2.9 05:07:40 10° SSE 05:11:41 36° ESE 05:15:42 10° NE
ADEOS 4.3 05:08:40 10° NNE 05:13:48 53° E 05:18:53 10° S
BREEZE-M DEB (TANK) 3.2 05:16:52 45° NNW 05:17:19 48° N 05:23:57 10° ENE
Meteor 2-8 Rocket 4.3 05:18:23 10° NNW 05:24:32 77° W 05:30:37 10° S
CZ-4C R/B 2.7 05:22:19 10° SSE 05:25:26 78° ENE 05:26:28 39° N
COSMOS 2487 4.4 05:23:41 11° N 05:26:22 26° ENE 05:29:14 10° ESE
SKYMED 2 3.7 05:25:21 10° S 05:29:34 51° W 05:31:28 29° NW
MOS 1-B Rocket 4.2 05:24:14 10° S 05:30:06 43° W 05:33:51 19° NW
SJ-12 4.1 05:26:58 10° N 05:30:56 46° WNW 05:34:54 10° SW
CZ-2C R/B 3.7 05:28:06 10° NNE 05:32:56 54° E 05:37:57 10° S
CENTAUR R/B 3.6 05:31:36 24° NW 05:33:29 28° NNW 05:39:45 10° NNE
Cosmos 2180 Rocket 4.4 05:28:33 10° NNW 05:34:40 67° W 05:40:43 10° S
Cosmos 783 Rocket 4.4 05:31:02 18° NNW 05:34:57 73° WSW 05:40:07 10° SSE
Cosmos 1503 Rocket 4.1 05:33:33 10° SW 05:38:41 51° WNW 05:43:55 10° NNE
ATLAS 5 CENTAUR R/B 1.6 05:35:41 10° SSW 05:39:26 67° SE 05:43:39 10° NE
CZ-4B R/B 3.5 05:37:18 10° NNE 05:40:49 51° E 05:44:19 10° S
Meteor 1-27 Rocket 3.7 05:36:13 10° N 05:41:54 88° ENE 05:47:41 10° S
Cosmos 1151 Rocket 4.0 05:42:26 27° W 05:42:26 27° W 05:45:51 10° SW
H-2A R/B 2.9 05:39:16 10° SSE 05:43:25 52° ENE 05:47:42 10° N
Meteor PRIRODA 3.9 05:42:03 10° NNE 05:45:41 70° ESE 05:49:17 10° S
Cosmos 1777 Rocket 4.0 05:40:48 10° SSW 05:46:01 89° ESE 05:51:18 10° NNE
SL-8 R/B 4.2 05:45:02 25° W 05:47:25 46° SSW 05:51:58 10° SE
Cosmos 773 Rocket 4.0 05:45:01 14° NNW 05:49:29 61° WSW 05:54:33 10° S
Lacrosse 4 Rocket 4.1 05:48:59 10° NNE 05:50:51 12° NE 05:52:43 10° ENE
Cosmos 1515 4.1 05:50:24 10° N 05:54:11 63° E 05:57:57 10° SSE
Cosmos 1340 Rocket 2.7 05:50:30 10° S 05:54:27 89° E 05:58:29 10° N
Okean 3 Rocket 4.4 05:51:09 10° SW 05:55:06 29° WNW 05:59:05 10° NNW
SL-27 R/B 2.8 05:54:53 22° NW 05:56:51 44° WSW 06:00:13 10° S
NOSS 2 (A) 4.0 05:59:54 26° NW 06:01:14 80° WSW 06:03:40 10° SE
ATLAS 3B R/B 2.7 05:56:18 10° SSW 06:02:48 82° SE 06:09:41 10° NE
DMSP B5D2-2 4.0 05:57:37 10° S 06:02:48 69° WSW 06:08:01 10° NNW
Envisat 3.7 05:59:12 10° N 06:03:34 30° WNW 06:07:56 10° SW
Meteor 1-25 Rocket 4.4 06:03:48 10° S 06:09:24 78° E 06:14:59 10° NNE
Cosmos 158 Rocket 4.0 06:05:40 10° NNW 06:10:50 87° WSW 06:16:06 10° SSE
Cosmos 1939 Rocket 2.7 06:10:43 10° NNE 06:14:39 86° WNW 06:18:31 10° SSW
Cosmos 2297 Rocket 3.2 06:09:26 10° NNW 06:14:54 45° ENE 06:20:18 10° SE
Cosmos 1174 3.4 06:13:34 10° SW 06:16:26 43° NW 06:19:29 10° NNE
COSMO-SKYMED 1 4.1 06:15:09 10° SW 06:17:57 17° W 06:20:04 13° WNW
Cosmos 2369 Rocket 3.5 06:16:09 13° W 06:19:05 18° NW 06:22:53 10° N
Meteor 1-31 Rocket 4.1 06:16:43 10° NNW 06:19:29 19° WNW 06:22:15 10° WSW
Cosmos 1607 4.0 06:17:44 10° NW 06:24:02 83° NE 06:30:12 10° SE
CZ-4B R/B 1.5 06:21:16 10° SSE 06:24:33 74° ENE 06:27:49 10° N
SL-4 R/B 3.5 06:22:32 10° SSW 06:25:47 35° SE 06:29:15 10° ENE
USA 215 3.5 06:20:57 10° SSE 06:27:20 56° SW 06:33:45 10° WNW
Okean 1 3.3 06:25:56 10° N 06:29:54 89° W 06:33:51 10° S
DELTA 2 R/B (1) 4.4 06:28:33 10° W 06:33:48 45° S 06:39:04 10° ESE
CZ-2C R/B 4.1 06:30:28 10° SW 06:33:51 17° W 06:37:14 10° NW
CZ-2D R/B 3.5 06:30:17 10° NNE 06:34:05 73° ESE 06:37:50 10° S
Cosmos 2263 Rocket 4.5 06:33:28 10° N 06:36:21 14° NE 06:39:14 10° ENE
Meteor 1-18 Rocket 4.4 06:31:26 10° N 06:37:19 83° ENE 06:43:02 10° SSE
Nadezhda 4 Rocket 4.5 06:31:55 10° SW 06:37:32 36° WNW 06:43:16 10° N
NOAA 12 4.3 06:33:38 10° N 06:38:43 50° WNW 06:43:45 10° SW
Cosmos 1743 Rocket 4.3 06:36:14 10° SW 06:40:09 32° WNW 06:44:04 10° N
FengYun 1-2 T 4.2 06:34:46 10° N 06:40:11 62° WNW 06:45:35 10° SSW
Cosmos 990 Rocket 4.4 06:36:14 10° SSW 06:41:28 73° ESE 06:46:42 10° NNE
Cosmos 2228 Rocket 3.5 06:38:10 10° NNW 06:42:27 44° W 06:46:46 10° SSW
Lacrosse 5 3.8 06:40:29 10° SSW 06:45:05 36° SE 06:49:44 10° ENE
CORIOLIS 4.2 06:40:49 10° N 06:46:17 75° WNW 06:51:42 10° SSW
Meteor 2-4 Rocket 4.1 06:41:46 10° N 06:47:43 75° E 06:53:32 10° SSE
